CZ-6A DEB, 60880

Orbit data source: Space-Track

CZ-6A DEB, 60880 is space debris in LEO originally from a launch on Tue, 06 Aug 2024 UTC launched from the Taiyaun Space Center, China (TSC). Debris objects in space refer to the collection of defunct objects orbiting the Earth. Examples of debris include non-operational satellites, rocket bodies, and fragments generated from explosions, collisions, or faulty payload assembly.

Loading next visibility...
Identifier
60880, 2024-140KK
Orbit
LEO
Country
Flag of CNCN / PRC
Related business
Manufacturer
SAST
Mission
Spacecraft
Bus & Motor
Unknown
Mass
Unknown
Launch date (UTC)
2024-08-06 (2 years ago)
Launch vehicle
Unknown
Launch site
Taiyaun Space Center, China (TSC)
Object type
Payload
Rocket body
Debris
Shape & HBR
Unknown shape, 0.1 m
Radar Cross Section
Medium (>0.1 m² and <1 m²)

Expand to show TLE details & history
Last TLE update: 14 hours ago

TLE from 14 hours ago
0 CZ-6A DEB
1 60880U 24140KK  26171.30024312  .00004519  00000-0  66748-3 0  9998
2 60880  89.1112 278.3690 0113498 210.2036 149.2609 14.70753254 98085
Epoch: 2026-06-20T07:12Z
TLE epoch observation values (Epoch: 2026-06-20T07:12:21.005Z)
Latitude
-0.00005°
Longitude
-98.23537°
Altitude
730.684 km
Speed
7.453 km/s
True Right ascension
18h 33m 28s
True Declination
0° 00' 00"
Sunlit
Object was in full shadow at epoch
Visualization orbit readout
Latitude
Unknown
Longitude
Unknown
Altitude
Unknown
Speed
Unknown
Apparent Right ascension
Unknown
Apparent Declination
Unknown
Sunlit
N/A
Visualization observer readout
Local Sidereal Time
08:33:08
Azimuth
Unknown
Elevation
Unknown
Doppler factor
Unknown
Orbital elements
Apogee altitude
735.373 km
Perigee altitude
575.711 km
Semi-major axis
7,033.679 km
Eccentricity
0.01135
Inclination
89.1112°
RAAN
278.369°
Arg. of periapsis
210.2036°
True anomaly
149.91764°
Mean anomaly
149.2609°
Eccentric anomaly
149.59007°
Mean motion
3.67934 °/min
Orbital period
97.84 mins
BSTAR
0.00066748
Loading maneuver chart data...
Computing Atmospheric mass density...
Loading historical data...
Loading historical data...
Loading historical data...
Loading historical data...
Loading historical data...
Loading historical data...
Loading historical data...

Documentation

Showing up to 5 results
|